Regional Weather Roundup
Issued by NWS

Home | Current Version | Previous Version | Graphics & Text | Print | Product List | Glossary On
Versions: 1 2 3 4 5 6 7 8 9 10 11 12 13 14 15 16 17 18 19 20 21 22 23 24 25 26 27 28 29 30 31 32 33 34 35 36 37 38 39 40 41 42 43 44 45 46 47 48 49 50
739
ASUS44 KJAN 171510
RWRMS

MISSISSIPPI HOURLY WEATHER ROUNDUP
NATIONAL WEATHER SERVICE JACKSON MS
1000 AM CDT WED SEP 17 2014

NOTE: "FAIR: INDICATES FEW OR NO CLOUDS BELOW 12,000 FEET WITH NO
SIGNIFICANT WEATHER AND/OR OBSTRUCTIONS TO VISIBILITY.

MSZ001>002-007>008-010>013-018>021-025>028-034>036-171600-
NORTHWEST MISSISSIPPI

CITY           SKY/WX    TMP DP  RH WIND       PRES   REMARKS
CLARKSDALE     FAIR      73  64  73 CALM      30.03R
CLEVELAND      FAIR      76  67  74 E7        30.00S
GREENWOOD      SUNNY     78  66  66 NE6       29.99F
GREENVILLE     SUNNY     78  66  66 VRB5      29.99S
GRENADA        FAIR      73  63  68 E7        30.01F
OLIVE BRANCH   CLOUDY    66  63  88 E6        30.04R
OXFORD         FAIR      70  59  68 SE6       30.05R
TUNICA         PTSUNNY   70  61  73 SE3       30.03R
$$

MSZ003>006-009-014>017-022>024-029>033-037>039-171600-
NORTHEAST MISSISSIPPI

CITY           SKY/WX    TMP DP  RH WIND       PRES   REMARKS
COLUMBUS AFB   MOSUNNY   73  66  77 VRB3      30.01S
CORINTH        FAIR      70  57  64 NE5       30.03R
GOLDN TRIANGLE PTSUNNY   72  64  78 CALM      30.02S
STARKVILLE     FAIR      73  64  73 NE3       30.01S
TUPELO         SUNNY     73  60  63 E6        30.02S
$$

MSZ040-058-171600-
CENTRAL MISSISSIPPI

CITY           SKY/WX    TMP DP  RH WIND       PRES   REMARKS
JACKSON INTL   SUNNY     81  70  69 E6        29.99R
JACKSON HAWKNS SUNNY     80  70  71 E5        30.00R
MERIDIAN KEY   SUNNY     81  69  67 NE6       30.00R
MERIDIAN NAS   CLOUDY    76  69  79 N3        30.01R
RAYMOND        FAIR      82  75  78 SE6       29.99S
VICKSBURG      SUNNY     80  71  74 CALM      29.99R
$$

MSZ059>079-171600-
SOUTH MISSISSIPPI

CITY           SKY/WX    TMP DP  RH WIND       PRES   REMARKS
BROOKHAVEN     FAIR      82  73  74 NE3       30.01S
HATTIESBURG    SUNNY     81  72  74 MISG      29.99S
MCCOMB         PTSUNNY   77  71  82 SE3       30.00R
NATCHEZ        PTSUNNY   79  72  78 CALM      30.00S
PINE BELT      SUNNY     79  70  73 CALM      30.00F
$$

MSZ080>082-171600-
COASTAL MISSISSIPPI

CITY           SKY/WX    TMP DP  RH WIND       PRES   REMARKS
BAY ST LOUIS   MOSUNNY   79  72  78 CALM      29.99S
BILOXI         SUNNY     77  73  85 NE6       29.98S
PASCAGOULA     PTSUNNY   79  72  79 N5        29.97F
GULFPORT       PTSUNNY   78  72  81 N5        29.97F
$$



USA.gov is the U.S. government's official web portal to all federal, state and local government web resources and services.